User: anonymous
Location: Plum
(40.5000°N, 79.7500°W)
Time: 06:21:07
(UTC-04:00)
Language:

Cosmos 1825 - Orbit

View from above orbital plane
View from above orbital plane
View from above satellite
View from above satellite

Ground track
Ground track

The orbit data is extracted from the following two-line orbital elements,

1 17566U 87024A   14265.42962174  .00003865  00000-0  21785-3 0  1045
2 17566 082.5100 197.4037 0006562 083.5394 055.2651 15.12911425502456
Epoch (UTC): 22 September 2014 10:18:39
Eccentricity: 0.0006562
inclination: 82.5100°
perigee height: 523 km
apogee height: 532 km
right ascension of ascending node: 197.4037°
argument of perigee: 83.5394°
revolutions per day: 15.12911425
mean anomaly at epoch: 55.2651°
orbit number at epoch: 50245

The dashed part of the orbit path shows where the satellite is in the earth's shadow,  

DLR